Regional Weather Roundup
Issued by NWS

Home | Current Version | Previous Version | Graphics & Text | Print | Product List | Glossary On
Versions: 1 2 3 4 5 6 7 8 9 10 11 12 13 14 15 16 17 18 19 20 21 22 23 24 25 26 27 28 29 30 31 32 33 34 35 36 37 38 39 40 41 42 43 44 45 46 47 48 49 50
000
ASUS43 KIND 182209
RWRIN

WEATHER ROUNDUP FOR INDIANA
NATIONAL WEATHER SERVICE INDIANAPOLIS IN
500 PM EST THU DEC 18 2014

NOTE: "FAIR" INDICATES FEW OR NO CLOUDS BELOW 12,000 FEET WITH NO
SIGNIFICANT WEATHER AND/OR OBSTRUCTIONS TO VISIBILITY.

* - STATION DOES NOT REPORT WEATHER SUCH AS PRECIPITATION OR FOG.

+ - STATION NOT QUALITY CONTROLLED BY THE NATIONAL WEATHER SERVICE.
    USE DATA WITH CAUTION...ESPECIALLY DEWPOINT AND RELATIVE
    HUMIDITY OBSERVATIONS.

INZ001>003-010>013-019-020-182300-
NORTHWEST INDIANA

CITY           SKY/WX    TMP DP  RH WIND       PRES   REMARKS
GARY /AIRPORT/ CLOUDY    28  16  59 W6        30.25  WCI  22
KNOX *+        MOCLDY    28  17  66 CALM      30.22S
LA PORTE +     MOCLDY    29  21  73 CALM      30.23S
MICHIGAN CITY+ MOCLDY    28  18  64 CALM      30.24S
MONTICELLO +   CLOUDY    27  20  76 NW5       30.23R WCI  21
RENSSELAER +   CLOUDY    28  23  80 CALM      30.24R
VALPARAISO     MOCLDY    26  18  71 W3        30.23R

$$

LMZ046-743>745-182300-
SOUTHERN LAKE MICHIGAN

STATION/POSITION TIME  TEMP WIND        PRES
                       AIR  DIR/SP/G
                 (UTC) (F)  (DEG/KT/KT) (MB)

$$

INZ004-005-014>016-021>024-182300-
NORTH CENTRAL INDIANA

CITY           SKY/WX    TMP DP  RH WIND       PRES   REMARKS
GOSHEN         CLOUDY    27  22  81 W8        30.21S WCI  19
LOGANSPORT +   CLOUDY    27  19  74 W3        30.24R
PERU/GRISSOM   CLOUDY    26  24  94 W3        30.22R
ROCHESTER +    CLOUDY    30  23  74 W5        30.22S WCI  25
SOUTH BEND     CLOUDY    28  21  75 W8        30.22S WCI  20
WARSAW +       CLOUDY    28  21  74 W5        30.21S WCI  23

$$

INZ006>009-017-018-025>027-182300-
NORTHEAST INDIANA

CITY           SKY/WX    TMP DP  RH WIND       PRES   REMARKS
ANGOLA *+      CLOUDY    27  25  93 W6        30.18S WCI  20
AUBURN +       CLOUDY    30  23  74 W6        30.21S WCI  24
FORT WAYNE     CLOUDY    27  21  78 W8        30.22S WCI  19
HUNTINGTON +   CLOUDY    26  23  85 CALM      30.21F

$$

INZ028-029-035-036-043>045-051>053-182300-
WEST CENTRAL INDIANA

CITY           SKY/WX    TMP DP  RH WIND       PRES   REMARKS
GREENCASTLE +  CLOUDY    28  19  69 CALM      30.24R
LAFAYETTE      CLOUDY    26  21  81 NW5       30.24S WCI  20
TERRE HAUTE    CLOUDY    30  21  69 CALM      30.24S

$$

INZ030>032-037>040-046>048-054>057-064-065-182300-
CENTRAL INDIANA

CITY           SKY/WX    TMP DP  RH WIND       PRES   REMARKS
CP ATTERBURY + CLOUDY    30  23  74 MISG      30.24S
COLUMBUS       CLOUDY    28  23  80 CALM      30.24S
FRANKFORT +    MOCLDY    28  22  78 CALM      30.24S
INDIANAPOLIS   CLOUDY    27  21  78 CALM      30.22R
-EAGLE CREEK   CLOUDY    27  21  78 CALM      30.22R
KOKOMO *+      MOCLDY    27  19  74 NW6       30.22R WCI  20
MARION +       CLOUDY    27  23  85 NW5       30.22R WCI  21
MT COMFORT *+  CLOUDY    27  21  80 CALM      30.22S
SHELBYVILLE    CLOUDY    29  22  75 CALM      30.22S
ZIONSVILLE +   CLOUDY    28  20  74 CALM      30.22S

$$

INZ033-034-041-042-049-050-058-059-182300-
EAST CENTRAL INDIANA

CITY           SKY/WX    TMP DP  RH WIND       PRES   REMARKS
MUNCIE         CLOUDY    27  20  75 W3        30.21R

$$

INZ060-061-067>069-081>083-085>088-182300-
SOUTHWEST INDIANA

CITY           SKY/WX    TMP DP  RH WIND       PRES   REMARKS
EVANSVILLE     CLOUDY    34  25  69 N3        30.25R
HUNTINGBURG *+ MOCLDY    32  25  74 N5        30.24S WCI  27
WASHINGTON +   CLOUDY    30  22  70 CALM      30.24S

$$

INZ062-063-066-070>080-084-089>092-182300-
SOUTH CENTRAL AND SOUTHEAST INDIANA

CITY           SKY/WX    TMP DP  RH WIND       PRES   REMARKS
BLOOMINGTON    CLOUDY    30  22  72 CALM      30.22S

$$



USA.gov is the U.S. government's official web portal to all federal, state and local government web resources and services.